Narsaq

KL  EN  DA
ASIAQ
Weather Now GREENLAND SURVEY
Updated [WGT/WGST] Temperature [°C] Wind [m/s] Air pressure [hPa] Relative humidity [%] Precipitation [mm]
Present Wind chill Speed Max
18.04 00:00-6,1-13,86,9 ⇓11,31010340,1
17.04 23:00-6,2-12,95,4 ⇓8,11010380,0
17.04 22:00-5,2-11,24,7 ⇘9,01010330,0
17.04 21:00-4,6-11,86,8 ⇘10,01009420,0
17.04 20:00-4,0-12,09,2 ⇘12,41008380,0
17.04 19:00-3,5-11,28,8 ⇘13,41007390,0
17.04 18:00-3,4-10,98,6 ⇘12,81007350,0
17.04 17:00-2,9-10,89,9 ⇘13,11007320,0
17.04 16:00-2,8-10,69,8 ⇘13,91006380,0
17.04 15:00-2,9-10,38,5 ⇘11,81006390,0
17.04 14:00-2,8-10,08,2 ⇘12,31005380,0
17.04 13:00-3,0-10,07,5 ⇘12,31005310,0
17.04 12:00-3,3-11,19,1 ⇘12,51005370,0
17.04 11:00-4,7-13,911,6 ⇘15,61004290,0
17.04 10:00-5,3-14,711,8 ⇘16,31004350,0
17.04 09:00-6,8-16,912,6 ⇘16,91003360,0
17.04 08:00-7,8-18,512,9 ⇘18,31003340,0
17.04 07:00-8,7-19,913,6 ⇘17,41002410,0
17.04 06:00-8,6-19,212,2 ⇘18,11002430,0
17.04 05:00-9,3-20,713,4 ⇘18,91001470,0
17.04 04:00-9,0-21,015,8 ⇘20,91000490,0
17.04 03:00-8,9-21,116,8 ⇘23,11000420,0
17.04 02:00-9,3-21,717,1 ⇘23,6998410,0
17.04 01:00-9,2-21,517,1 ⇘22,4998370,0
17.04 00:00-9,0-21,317,2 ⇘22,0999460,0
Position: (60.91702778,-46.05905556)

[Back]